This is the latest recevied weather packets stored in our database for station/object W6SNO-1. If no packets are shown the sender has not sent any weather packets the latest 10 day(s).
| Time | Temp. | Humidity | Pressure | Rain* | Wind** | Luminosity | Snow |
|---|---|---|---|---|---|---|---|
| 1777927046 | 16.67° C | 64% | 1015.4 hPa | 0 mm | - | 144 W/m² | - |
| 1777926743 | 16.11° C | 65% | 1015.3 hPa | 0 mm | - | 113 W/m² | - |
| 1777926443 | 16.11° C | 63% | 1015.4 hPa | 0 mm | - | 105 W/m² | - |
| 1777926141 | 15.56° C | 64% | 1015.3 hPa | 0 mm | - | 104 W/m² | - |
| 1777925838 | 15.56° C | 64% | 1015.4 hPa | 0 mm | - | 110 W/m² | - |
| 1777925535 | 16.11° C | 64% | 1015.5 hPa | 0 mm | - | 96 W/m² | - |
| 1777925232 | 15.56° C | 64% | 1015.3 hPa | 0 mm | - | 79 W/m² | - |
| 1777924928 | 16.11° C | 64% | 1015.2 hPa | 0 mm | - | 77 W/m² | - |
| 1777924625 | 16.11° C | 64% | 1015.2 hPa | 0 mm | - | 86 W/m² | - |
| 1777924321 | 16.11° C | 63% | 1015.3 hPa | 0 mm | - | 121 W/m² | - |
| 1777924018 | 16.67° C | 61% | 1015.3 hPa | 0 mm | - | 132 W/m² | - |
| 1777923714 | 16.67° C | 60% | 1015.3 hPa | 0 mm | - | 151 W/m² | - |
| 1777923410 | 16.67° C | 60% | 1015.3 hPa | 0 mm | - | 148 W/m² | - |
| 1777923108 | 16.67° C | 57% | 1015.2 hPa | 0 mm | - | 185 W/m² | - |
| 1777922806 | 16.67° C | 58% | 1015.3 hPa | 0 mm | - | 182 W/m² | - |
| 1777922504 | 16.67° C | 59% | 1015.4 hPa | 0 mm | - | 182 W/m² | - |
| 1777922202 | 17.22° C | 57% | 1015.2 hPa | 0 mm | - | 205 W/m² | - |
| 1777921898 | 16.67° C | 57% | 1015.3 hPa | 0 mm | - | 214 W/m² | - |
| 1777921594 | 16.67° C | 60% | 1015.3 hPa | 0 mm | - | 238 W/m² | - |
| 1777921291 | 17.22° C | 57% | 1015.2 hPa | 0 mm | - | 265 W/m² | - |
| 1777920987 | 17.22° C | 58% | 1015.5 hPa | 0 mm | - | 293 W/m² | - |
| 1777920684 | 17.22° C | 58% | 1015.4 hPa | 0 mm | - | 358 W/m² | - |
| 1777920380 | 16.67° C | 60% | 1015.4 hPa | 0 mm | - | 356 W/m² | - |
| 1777920075 | 16.11° C | 60% | 1015.6 hPa | 0 mm | - | 348 W/m² | - |
| 1777919773 | 16.11° C | 59% | 1015.4 hPa | 0 mm | - | 287 W/m² | - |
* Rain latest hour (hover to see other rain measurements)
** Current wind speed in m/s (hover to see current wind gust speed)